TimePDT,TemperatureF,Dew PointF,Humidity,Sea Level PressureIn,VisibilityMPH,Wind Direction,Wind SpeedMPH,Gust SpeedMPH,PrecipitationIn,Events,Conditions,WindDirDegrees,DateUTC
12:53 AM,66.0,54.0,65,29.89,10.0,Calm,Calm,-,N/A,,Clear,0,2013-09-02 07:53:00
1:53 AM,64.9,54.0,68,29.89,10.0,Calm,Calm,-,N/A,,Clear,0,2013-09-02 08:53:00
2:53 AM,64.0,55.0,73,29.88,10.0,Calm,Calm,-,N/A,,Overcast,0,2013-09-02 09:53:00
3:53 AM,63.0,55.9,78,29.88,10.0,Calm,Calm,-,N/A,,Overcast,0,2013-09-02 10:53:00
4:53 AM,63.0,55.9,78,29.88,10.0,Calm,Calm,-,N/A,,Overcast,0,2013-09-02 11:53:00
5:53 AM,63.0,55.9,78,29.88,10.0,Calm,Calm,-,N/A,,Overcast,0,2013-09-02 12:53:00
6:53 AM,61.0,55.9,83,29.90,10.0,SW,3.5,-,N/A,,Partly Cloudy,230,2013-09-02 13:53:00
7:53 AM,61.0,55.9,83,29.91,10.0,Calm,Calm,-,N/A,,Partly Cloudy,0,2013-09-02 14:53:00
8:53 AM,64.9,55.9,73,29.92,10.0,Calm,Calm,-,N/A,,Partly Cloudy,0,2013-09-02 15:53:00
9:53 AM,68.0,55.9,65,29.92,10.0,Calm,Calm,-,N/A,,Overcast,0,2013-09-02 16:53:00
10:53 AM,72.0,57.0,59,29.92,10.0,Calm,Calm,-,N/A,,Mostly Cloudy,0,2013-09-02 17:53:00
11:53 AM,73.9,55.9,53,29.91,10.0,WSW,5.8,-,N/A,,Overcast,250,2013-09-02 18:53:00
12:53 PM,77.0,54.0,45,29.91,10.0,WSW,9.2,-,N/A,,Partly Cloudy,240,2013-09-02 19:53:00
1:53 PM,75.9,53.1,45,29.90,10.0,West,6.9,-,N/A,,Mostly Cloudy,280,2013-09-02 20:53:00
2:53 PM,79.0,52.0,39,29.88,10.0,Calm,Calm,-,N/A,,Partly Cloudy,0,2013-09-02 21:53:00
3:53 PM,82.0,48.9,31,29.86,10.0,WSW,8.1,17.3,N/A,,Scattered Clouds,250,2013-09-02 22:53:00
4:53 PM,82.0,48.9,31,29.86,10.0,WSW,8.1,-,N/A,,Partly Cloudy,250,2013-09-02 23:53:00
5:53 PM,80.1,48.9,34,29.86,10.0,NW,8.1,-,N/A,,Overcast,310,2013-09-03 00:53:00
6:53 PM,77.0,55.0,47,29.87,10.0,NNW,10.4,-,N/A,,Overcast,340,2013-09-03 01:53:00
7:53 PM,75.0,55.0,50,29.89,10.0,NNW,6.9,-,N/A,,Overcast,340,2013-09-03 02:53:00
8:53 PM,73.0,55.0,53,29.91,10.0,North,5.8,-,N/A,,Mostly Cloudy,350,2013-09-03 03:53:00
9:53 PM,71.1,55.0,57,29.92,10.0,North,6.9,-,N/A,,Overcast,360,2013-09-03 04:53:00
10:53 PM,70.0,55.0,59,29.94,10.0,North,3.5,-,N/A,,Overcast,360,2013-09-03 05:53:00
11:53 PM,69.1,55.0,61,29.93,10.0,NNW,3.5,-,N/A,,Overcast,340,2013-09-03 06:53:00